Regional Weather Roundup
Issued by NWS

Home | Current Version | Previous Version | Text Only | Print | Product List | Glossary Off
Versions: 1 2 3 4 5 6 7 8 9 10 11 12 13 14 15 16 17 18 19 20 21 22 23 24 25 26 27 28 29 30 31 32 33 34 35 36 37 38 39 40 41 42 43 44 45 46 47 48 49 50

277
ASUS43 KOAX 270510
RWRNE

WEATHER ROUNDUP FOR NEBRASKA
NATIONAL WEATHER SERVICE OMAHA NE
1200 AM CDT MON MAR 27 2017

NOTES: SATELLITE DATA IS BEING USED TO AUGMENT CLOUD COVER ABOVE
       12000 FEET.
       "FAIR" INDICATES FEW OR NO CLOUDS BELOW 12,000 FEET WITH NO
       SIGNIFICANT WEATHER AND/OR OBSTRUCTIONS TO VISIBILITY.

  * THESE STATIONS DO NOT REPORT WEATHER SUCH AS RAIN...SNOW OR FOG.

NEZ001>004-019>022-054>056-270600-
NEBRASKA PANHANDLE

CITY           SKY/WX    TMP DP  RH WIND       PRES   REMARKS
SCOTTSBLUFF    CLOUDY    34  29  82 NE3       29.96S
ALLIANCE       CLEAR     34  34 100 E3        29.94F
CHADRON        CLOUDY    41  38  89 S5        29.95F
KIMBALL        CLOUDY    32  32 100 W6        29.97F WCI  26
SIDNEY         CLEAR     34  32  92 NW10      29.97S WCI  26
$$

NEZ057>060-069>072-079>082-270600-
SOUTHWEST NEBRASKA

CITY           SKY/WX    TMP DP  RH WIND       PRES   REMARKS
NORTH PLATTE   CLOUDY    42  39  89 CALM      29.94R
IMPERIAL       CLOUDY    45  41  86 S7        29.93S
LEXINGTON      CLOUDY    40  38  93 CALM      29.94S
MCCOOK         CLEAR     41  41 100 W7        29.94R
OGALLALA       CLEAR     45  38  77 NW13      29.92F
$$

NEZ005>010-023>029-035>040-094-270600-
NORTH CENTRAL NEBRASKA

CITY           SKY/WX    TMP DP  RH WIND       PRES   REMARKS
VALENTINE      CLOUDY    40  34  79 CALM      29.97S
AINSWORTH      MOCLDY    40  40  99 CALM      29.97R
BROKEN BOW     CLOUDY    46  43  89 CALM      29.94R
O`NEILL        CLOUDY    44  41  91 CALM      29.95F
ORD            MOCLDY    44  40  85 CALM      29.93F
THEDFORD       CLOUDY    43  40  92 CALM      29.96S
$$

NEZ041-046>049-061>064-073>077-083>087-270600-
SOUTH CENTRAL NEBRASKA

CITY           SKY/WX    TMP DP  RH WIND       PRES   REMARKS
GRAND ISLAND   CLOUDY    45  45 100 NE3       29.94S FOG
AURORA         CLOUDY    44  44  98 N3        29.93F
HASTINGS       CLOUDY    45  44  97 NE5       29.94S
HEBRON         CLOUDY    44  43  96 NE7       29.91F
HOLDREGE       CLOUDY    42  41  95 CALM      29.93S
KEARNEY *      MOCLDY    45  39  81 NE6       29.94S
YORK           CLOUDY    45  45 100 E3        29.94S
$$

NEZ011>018-030>034-042>045-270600-
NORTHEAST NEBRASKA

CITY           SKY/WX    TMP DP  RH WIND       PRES   REMARKS
NORFOLK        CLOUDY    43  39  86 NE3       29.95S
ALBION         CLOUDY    45  42  91 NE3       29.95S
BLAIR          CLOUDY    46  42  86 N6        29.94R
FREMONT        CLOUDY    44  44  97 CALM      29.96R
TEKAMAH        CLOUDY    45  41  86 N7        29.95F
WAYNE          CLOUDY    42  42  99 CALM      29.95F
$$

NEZ050>053-065>068-078-088>093-270600-
SOUTHEAST NEBRASKA

CITY           SKY/WX    TMP DP  RH WIND       PRES   REMARKS
LINCOLN        CLOUDY    47  43  86 N7        29.95S
OMAHA EPPLEY   CLOUDY    47  42  83 N3        29.95R
BEATRICE       CLOUDY    45  44  95 N3        29.93F
FALLS CITY     CLOUDY    46  44  93 N8        29.90F
NEBRASKA CITY  CLOUDY    46  44  95 CALM      29.93S
PLATTSMOUTH    CLOUDY    46  41  82 CALM      29.94R
$$

NEZ044-045-051>053-067-270600-
OMAHA AREA

CITY           SKY/WX    TMP DP  RH WIND       PRES   REMARKS
OMAHA EPPLEY   CLOUDY    47  42  83 N3        29.95R
BLAIR          CLOUDY    46  42  86 N6        29.94R
FREMONT        CLOUDY    44  44  97 CALM      29.96R
MILLARD        CLOUDY    49  44  84 CALM      29.95R
OFFUTT AFB     CLOUDY    47  42  81 N5        29.94S
PLATTSMOUTH    CLOUDY    46  41  82 CALM      29.94R
WAHOO          CLOUDY    44  43  95 NW3       29.95R
$$




USA.gov is the U.S. government's official web portal to all federal, state and local government web resources and services.